Wind_Speed
15 14 15 15 15 16 17 17 18 20 21 21 21 21 21 22 22 23 23 23 24 26 26 26 26 29 30 33 39 45 48 48 44 41 39 39 40 45 47 49 50 53 51 49 55
17 17 18 16 15 16 18 19 19 20 21 22 24 24 23 24 25 26 26 27 27 28 29 29 29 28 29 31 36 42 48 49 47 45 46 47 44 48 49 49 50 51 50 50 56
21 20 19 17 16 18 19 19 21 23 26 28 29 29 29 30 30 29 28 28 30 31 31 31 32 32 32 32 34 38 42 45 48 51 53 51 47 48 52 52 52 53 49 49 55
24 24 23 21 19 19 21 24 27 30 32 34 34 33 33 34 35 35 33 32 30 32 34 34 34 36 36 35 37 38 39 42 45 50 55 56 53 53 54 55 55 55 52 51 55
27 26 26 27 26 25 29 32 33 35 38 38 36 37 38 38 38 37 37 37 36 36 35 36 37 39 38 38 40 41 40 42 42 47 52 53 55 56 57 59 59 58 55 54 54
22 23 24 26 31 35 37 38 42 43 43 43 42 40 40 40 39 39 39 40 40 41 41 41 41 42 42 41 42 45 44 44 45 46 48 50 51 54 60 59 59 59 60 59 60
29 29 30 32 36 39 40 43 45 45 46 45 42 41 43 41 41 43 42 43 44 46 46 46 46 46 46 45 46 48 49 49 50 47 48 46 48 50 57 57 58 61 63 63 64
34 35 37 38 41 43 45 44 44 44 44 44 45 45 44 41 41 41 42 43 44 43 43 43 44 47 48 48 49 49 51 53 55 50 47 48 54 56 58 53 54 60 63 65 66
38 39 40 41 41 42 43 45 45 46 46 46 46 46 46 43 41 41 42 42 41 42 42 44 45 45 48 49 50 53 54 56 55 51 53 52 54 62 59 56 55 56 60 65 68
37 38 39 40 42 43 44 45 46 48 48 47 47 46 45 43 42 43 42 42 42 44 46 46 47 48 47 48 50 50 53 57 61 58 56 56 59 64 62 62 62 61 60 60 62
37 39 41 42 43 45 45 46 47 47 48 48 46 46 45 43 45 47 47 46 46 46 49 49 50 52 50 51 51 51 51 53 57 60 60 62 62 67 66 67 66 64 65 63 62
40 41 42 43 42 42 43 42 42 42 42 44 43 43 45 41 45 50 51 50 49 50 50 51 54 54 55 55 56 56 57 58 58 59 56 60 64 66 70 73 68 68 67 68 68
41 40 38 37 37 38 38 37 38 40 39 47 46 46 46 46 47 53 52 53 52 52 53 52 57 54 54 56 58 58 58 61 62 60 58 54 56 63 69 72 73 71 71 70 69
37 35 35 36 38 40 40 39 41 40 38 41 41 42 44 45 43 46 42 45 45 48 49 47 58 54 53 53 56 58 60 58 59 59 61 61 60 60 67 68 71 74 74 74 73
39 38 37 39 41 42 44 43 45 46 47 45 42 44 43 45 46 46 43 43 45 46 43 43 51 50 50 51 52 54 58 59 57 55 48 52 60 63 64 68 71 72 75 76 75
43 44 45 46 49 50 52 53 53 53 50 52 51 53 52 53 52 51 49 45 45 42 41 45 51 51 52 53 55 53 58 59 58 57 53 56 56 57 62 64 64 69 74 75 77
49 50 52 54 55 58 61 59 60 59 63 64 64 63 61 61 59 58 58 54 51 47 47 48 50 51 51 52 55 56 58 62 63 63 63 63 61 53 50 55 60 63 64 66 71
55 60 60 61 60 62 65 66 65 66 65 69 71 73 72 69 67 65 65 61 60 57 54 54 55 53 54 56 54 53 58 63 68 68 70 70 63 52 52 52 58 61 63 67 71
60 62 64 68 70 70 70 71 72 73 75 76 79 80 77 80 78 73 67 67 66 65 66 63 62 63 60 58 59 54 56 62 71 72 72 71 64 57 54 54 54 57 63 66 66
64 69 70 70 69 70 71 71 71 75 77 85 90 93 93 87 84 84 78 74 72 71 69 67 68 66 65 63 62 62 56 57 59 75 73 69 65 60 56 56 55 56 60 66 69
71 73 70 67 68 67 70 71 81 84 85 91 93 96 99 99 93 91 86 84 80 79 74 73 73 71 70 64 64 63 59 56 52 56 61 66 62 56 56 60 59 58 61 63 67
75 68 68 67 66 70 76 83 87 88 93 97 100 100 99 100 102 98 96 96 90 83 82 81 76 72 72 66 65 64 61 57 48 51 56 56 55 57 61 62 61 62 63 65 68
73 69 70 71 75 80 83 91 92 90 88 79 74 69 67 70 76 81 90 94 93 92 85 82 80 74 72 69 66 66 63 59 52 47 56 55 55 61 63 61 59 58 56 58 60
68 74 75 77 83 86 97 90 84 80 70 63 61 59 59 59 64 68 71 79 87 90 90 89 83 79 75 72 71 67 65 61 59 55 52 52 57 59 59 58 57 57 57 57 57
73 77 82 85 88 101 91 83 74 64 57 55 54 53 50 51 55 60 65 67 71 77 82 85 84 81 79 77 74 71 66 64 61 62 58 60 57 61 57 56 59 61 63 65 67
81 81 87 97 102 97 80 68 61 57 52 51 47 47 45 43 46 52 58 64 66 66 68 73 76 79 78 79 76 70 69 68 64 60 64 66 65 64 64 64 67 69 70 72 74
85 90 94 101 100 83 72 61 55 52 47 47 47 42 43 40 42 47 53 58 58 58 60 62 67 70 70 72 73 68 70 69 69 67 66 70 72 72 73 74 76 78 80 80 81
Wind_Direction
263 264 270 273 273 276 279 280 284 286 284 285 285 282 282 280 274 266 265 269 269 267 264 264 263 255 250 247 244 243 242 243 241 239 236 234 236 240 236 235 236 238 238 239 241
263 271 273 272 272 279 280 282 285 288 292 295 294 289 287 285 280 279 275 271 267 266 266 264 264 263 258 251 248 247 245 244 245 243 239 235 235 237 240 239 237 238 241 245 247
263 267 268 265 272 282 284 285 286 288 291 294 293 289 286 287 285 275 276 277 275 270 266 266 265 261 259 257 253 249 248 247 246 244 243 241 238 237 242 244 242 240 239 240 245
266 269 265 257 266 276 282 281 285 288 288 291 290 289 286 287 286 282 277 275 274 271 269 268 265 261 260 258 256 254 250 248 246 246 246 244 240 240 240 244 244 243 243 241 243
273 272 267 257 264 277 285 285 283 287 288 287 289 287 286 285 283 282 277 276 273 271 270 268 266 265 260 259 259 257 254 252 248 248 249 248 246 241 240 243 245 247 245 247 247
276 278 278 274 272 275 279 279 282 284 285 285 286 285 283 282 280 278 277 273 272 272 273 271 266 264 262 259 259 258 257 255 252 250 249 250 250 248 243 241 246 248 249 249 250
273 274 273 274 274 275 277 280 281 282 283 284 283 284 284 283 282 279 277 276 275 274 273 273 268 263 261 260 260 258 255 253 254 252 255 254 254 251 248 243 244 248 248 249 251
271 270 272 273 274 276 278 280 282 283 284 284 286 287 285 284 282 279 277 275 273 272 270 269 267 264 262 259 258 258 260 258 255 254 255 257 256 254 246 245 245 245 247 247 247
272 273 275 277 278 280 281 282 284 285 285 285 285 285 284 283 280 280 280 278 277 276 274 270 268 266 261 258 257 258 257 258 258 256 253 250 254 256 253 249 242 244 245 246 247
280 280 280 280 281 282 284 285 287 286 285 284 284 283 282 283 281 278 276 277 279 277 274 273 272 269 267 265 260 257 257 257 259 255 254 254 252 255 255 252 249 245 246 247 249
287 286 286 285 285 285 285 285 286 284 284 284 283 282 280 282 281 279 277 276 274 273 274 275 274 272 273 272 271 266 262 260 259 258 257 253 255 256 253 254 252 249 248 247 248
284 285 286 285 285 286 287 286 285 284 285 283 284 282 285 281 280 279 281 280 277 275 276 273 270 272 271 269 269 269 270 269 266 259 257 257 257 256 257 254 252 252 251 249 247
290 292 292 293 292 290 289 290 289 288 285 284 285 282 279 279 278 278 281 280 282 282 277 275 273 269 264 264 264 265 264 266 266 266 261 261 261 258 257 258 257 253 251 252 252
297 297 298 299 301 298 295 293 291 290 285 281 280 281 283 282 280 282 283 285 282 278 279 280 273 273 270 268 262 260 256 258 262 263 265 265 263 261 257 255 257 258 255 253 251
299 299 301 301 299 297 293 292 291 290 286 277 275 274 275 276 278 278 280 280 283 283 282 283 279 277 276 272 270 263 260 255 254 255 256 263 264 261 260 256 252 253 256 256 254
298 296 296 298 296 294 291 291 291 291 287 284 281 278 277 273 272 277 277 277 279 284 284 283 279 280 282 280 275 267 257 252 250 246 251 257 258 265 267 269 267 261 258 258 257
302 299 297 296 296 295 292 290 288 287 286 284 281 280 279 276 272 276 275 273 275 279 282 285 283 282 283 285 281 268 260 253 250 250 248 252 253 259 267 267 265 261 258 258 259
303 300 298 296 295 296 294 290 287 287 284 284 282 279 276 274 271 271 273 272 270 273 276 279 282 284 285 288 291 272 263 258 253 252 251 251 253 257 262 263 262 265 263 259 257
302 301 299 294 292 293 291 290 286 282 280 277 276 274 274 276 271 268 267 269 269 272 275 276 278 282 285 287 290 285 272 268 259 252 252 253 254 256 262 266 262 258 260 260 256
302 301 299 296 294 292 289 284 281 281 276 272 271 273 274 272 271 271 266 262 263 264 267 270 274 277 280 284 288 292 282 286 271 248 247 249 252 255 259 260 262 260 257 257 257
306 303 302 299 295 291 288 290 283 281 278 277 276 278 277 274 272 264 267 264 264 263 261 263 267 272 277 281 285 288 293 294 287 250 241 243 247 251 256 259 261 263 261 258 257
307 303 301 301 295 298 298 296 287 284 285 284 284 280 276 270 266 261 263 261 261 262 263 261 263 266 272 275 279 284 291 288 289 251 245 243 243 248 253 256 260 264 261 259 256
304 302 300 301 302 304 305 305 301 298 295 291 287 282 277 271 267 263 259 255 256 257 257 259 260 263 266 269 274 277 282 283 280 271 248 244 242 246 251 255 261 258 256 255 255
303 303 302 303 308 310 309 306 302 300 296 294 290 285 281 274 265 262 259 255 252 251 254 255 257 259 261 264 267 271 276 278 274 271 264 257 251 250 252 257 254 253 255 257 259
305 306 309 312 313 315 310 305 301 297 294 295 295 292 285 272 263 259 256 255 254 254 253 252 254 254 257 259 262 266 269 269 269 264 266 262 260 259 258 255 254 254 255 257 259
308 314 318 317 317 315 309 305 300 295 293 293 295 297 294 278 266 258 258 257 254 252 253 252 251 252 254 256 258 260 263 263 267 271 266 263 263 264 263 263 263 263 262 261 261
315 319 320 319 318 312 307 304 299 293 291 291 293 297 298 287 271 263 256 253 253 255 255 252 252 250 251 254 257 258 258 260 263 266 265 262 262 263 264 266 267 266 265 266 267
Height
10878 10878 10878 10877 10877 10877 10877 10877 10878 10877 10877 10877 10877 10877 10877 10877 10877 10877 10877 10877 10876 10876 10875 10874 10875 10876 10878 10878 10878 10877 10878 10880 10886 10892 10898 10901 10902 10899 10902 10907 10910 10910 10914 10916 10914
10874 10875 10875 10874 10874 10873 10873 10873 10873 10873 10873 10873 10872 10872 10872 10872 10872 10872 10872 10871 10871 10870 10869 10869 10869 10869 10871 10871 10869 10870 10871 10876 10881 10885 10887 10889 10892 10892 10893 10896 10900 10902 10908 10907 10908
10871 10871 10870 10870 10870 10870 10869 10869 10868 10868 10868 10868 10867 10866 10866 10865 10865 10865 10866 10865 10864 10863 10863 10863 10862 10862 10863 10863 10863 10861 10865 10867 10870 10872 10873 10879 10886 10887 10887 10888 10891 10893 10897 10898 10899
10866 10866 10866 10866 10866 10865 10865 10864 10863 10862 10861 10861 10860 10860 10859 10858 10858 10857 10858 10858 10857 10856 10856 10855 10855 10854 10854 10856 10854 10854 10857 10857 10861 10861 10862 10868 10874 10877 10879 10879 10882 10883 10886 10889 10889
10861 10861 10861 10861 10861 10860 10860 10859 10857 10855 10854 10853 10853 10852 10851 10851 10850 10849 10848 10848 10848 10847 10847 10847 10847 10846 10847 10848 10846 10846 10848 10848 10852 10851 10851 10856 10861 10867 10869 10870 10872 10874 10879 10879 10879
10856 10856 10856 10856 10855 10854 10852 10851 10849 10847 10845 10844 10843 10842 10842 10842 10840 10839 10838 10838 10838 10838 10837 10838 10837 10837 10838 10838 10838 10836 10838 10838 10840 10841 10842 10845 10850 10853 10856 10862 10864 10866 10866 10867 10866
10850 10850 10850 10849 10848 10846 10844 10842 10840 10838 10836 10834 10833 10832 10831 10833 10830 10828 10828 10827 10827 10827 10827 10827 10826 10826 10827 10828 10827 10826 10826 10827 10827 10832 10835 10839 10838 10837 10839 10850 10855 10853 10852 10854 10854
10843 10842 10841 10840 10838 10836 10834 10833 10832 10829 10827 10825 10823 10822 10819 10821 10819 10817 10816 10816 10816 10815 10815 10815 10814 10814 10815 10817 10816 10816 10816 10815 10817 10824 10827 10828 10821 10819 10823 10837 10840 10839 10839 10841 10843
10835 10834 10833 10832 10830 10827 10826 10824 10822 10819 10817 10815 10813 10810 10808 10810 10808 10806 10804 10803 10804 10803 10803 10802 10802 10801 10801 10803 10806 10806 10807 10803 10807 10812 10814 10814 10809 10802 10813 10819 10825 10826 10826 10828 10831
10826 10824 10823 10822 10820 10817 10815 10812 10811 10808 10805 10805 10801 10800 10799 10797 10795 10793 10792 10792 10791 10790 10790 10790 10789 10787 10789 10790 10792 10794 10792 10793 10791 10797 10800 10801 10799 10791 10797 10802 10805 10812 10817 10820 10822
10817 10814 10811 10810 10808 10806 10804 10802 10800 10797 10793 10793 10792 10786 10789 10786 10783 10779 10781 10780 10779 10777 10777 10778 10777 10774 10778 10777 10778 10779 10779 10779 10776 10780 10785 10784 10783 10777 10784 10782 10786 10795 10802 10810 10813
10807 10805 10803 10799 10798 10796 10793 10792 10790 10788 10784 10782 10781 10777 10776 10779 10772 10766 10768 10768 10769 10766 10766 10765 10761 10764 10764 10764 10764 10764 10765 10764 10762 10763 10770 10770 10768 10766 10764 10762 10776 10779 10785 10789 10795
10796 10795 10794 10789 10788 10786 10783 10783 10780 10778 10778 10767 10769 10768 10766 10766 10762 10755 10756 10754 10754 10753 10750 10751 10743 10749 10749 10749 10751 10751 10751 10749 10747 10750 10753 10755 10753 10751 10745 10750 10755 10763 10768 10772 10777
10788 10788 10786 10784 10779 10776 10773 10773 10770 10769 10768 10763 10761 10756 10753 10752 10751 10745 10746 10742 10740 10736 10737 10738 10725 10731 10734 10734 10737 10736 10735 10735 10735 10736 10735 10736 10737 10735 10731 10736 10737 10742 10750 10755 10760
10781 10778 10776 10773 10770 10765 10762 10761 10759 10757 10755 10752 10750 10747 10744 10742 10739 10736 10734 10730 10726 10724 10725 10723 10713 10716 10718 10718 10719 10721 10719 10721 10721 10721 10721 10720 10719 10716 10717 10720 10723 10727 10730 10737 10743
10772 10768 10766 10762 10759 10754 10750 10748 10746 10743 10740 10735 10736 10735 10732 10729 10727 10723 10720 10718 10713 10713 10711 10707 10702 10702 10703 10702 10700 10703 10701 10702 10704 10705 10707 10703 10705 10705 10704 10709 10714 10718 10719 10722 10727
10762 10757 10754 10749 10746 10741 10736 10733 10731 10727 10722 10720 10717 10715 10714 10712 10710 10707 10705 10706 10703 10700 10698 10693 10688 10688 10688 10686 10683 10683 10683 10685 10687 10688 10690 10686 10690 10696 10695 10696 10696 10698 10700 10702 10705
10749 10743 10739 10735 10731 10725 10719 10716 10713 10711 10704 10697 10694 10692 10692 10692 10691 10688 10685 10687 10687 10686 10683 10679 10675 10673 10673 10669 10666 10666 10667 10666 10669 10671 10672 10673 10679 10683 10684 10684 10682 10683 10684 10685 10684
10734 10730 10724 10719 10715 10710 10704 10699 10695 10689 10684 10677 10668 10665 10667 10666 10667 10668 10668 10668 10669 10667 10665 10662 10658 10655 10656 10653 10650 10651 10650 10649 10648 10654 10656 10659 10665 10668 10669 10669 10669 10670 10668 10667 10667
10720 10711 10706 10700 10695 10691 10685 10678 10671 10665 10658 10650 10642 10638 10638 10640 10638 10639 10645 10647 10648 10647 10646 10646 10642 10640 10637 10636 10634 10631 10630 10626 10621 10628 10638 10647 10649 10650 10652 10654 10653 10653 10653 10651 10649
10702 10692 10686 10680 10674 10669 10663 10656 10648 10640 10631 10623 10618 10612 10607 10606 10607 10610 10615 10620 10622 10623 10625 10625 10624 10625 10622 10623 10618 10614 10613 10608 10603 10608 10619 10629 10635 10634 10634 10634 10635 10637 10635 10635 10634
10683 10676 10666 10661 10653 10647 10639 10628 10620 10610 10602 10594 10584 10576 10570 10568 10567 10574 10583 10585 10593 10597 10599 10602 10606 10609 10606 10609 10604 10601 10599 10596 10595 10600 10604 10612 10620 10618 10616 10618 10618 10618 10618 10617 10616
10661 10654 10648 10638 10632 10621 10609 10599 10587 10577 10568 10559 10548 10542 10538 10535 10533 10539 10546 10556 10563 10568 10575 10578 10583 10588 10589 10589 10589 10587 10585 10583 10583 10586 10590 10593 10600 10596 10598 10602 10602 10600 10599 10598 10599
10645 10636 10627 10617 10605 10594 10582 10571 10559 10549 10540 10532 10524 10520 10515 10513 10511 10515 10519 10525 10533 10541 10548 10553 10561 10566 10570 10569 10570 10571 10570 10568 10569 10571 10576 10582 10581 10580 10580 10582 10582 10584 10587 10587 10587
10624 10616 10602 10591 10579 10567 10551 10540 10530 10526 10521 10513 10506 10500 10496 10493 10493 10494 10497 10502 10507 10515 10524 10532 10539 10543 10547 10548 10552 10554 10553 10552 10555 10556 10562 10563 10565 10559 10561 10563 10564 10567 10570 10571 10570
10599 10591 10581 10568 10553 10538 10527 10518 10509 10503 10502 10497 10494 10485 10480 10476 10477 10478 10479 10481 10487 10495 10501 10508 10516 10518 10523 10525 10532 10538 10536 10534 10537 10540 10544 10544 10544 10543 10543 10545 10545 10545 10548 10549 10550
10577 10568 10556 10545 10530 10517 10507 10499 10494 10487 10486 10483 10479 10474 10468 10465 10462 10462 10463 10464 10471 10476 10481 10489 10491 10497 10504 10503 10511 10521 10516 10519 10519 10520 10521 10520 10521 10524 10526 10526 10523 10521 10519 10523 10525